Dr. Bill's Marine Weather

Coastal Marine Forecast

       Alabama   Florida   Louisiana   Mississippi

Printer Friendly AL  FL  LA  MS

Data Buoys:   Western Gulf of Mexico    Eastern Gulf of Mexico
**********************************************************************
  Alabama
900 AM CDT SAT AUG 27 2016

ALZ051>064-271500-
SOUTHWEST ALABAMA
  
CITY           SKY/WX    TMP DP  RH WIND       PRES   REMARKS
MOBILE         MOSUNNY   83  72  69 E9        30.02S                  
BROOKLEY FIELD MOSUNNY   83  74  74 NE7       30.02S                  
EVERGREEN      SUNNY     81  72  74 E6        30.04F                  
**********************************************************************
  Florida
1000 AM EDT SAT AUG 27 2016

FLZ001>010-012>015-112-114-115-271500-
PANHANDLE FLORIDA
  
CITY           SKY/WX    TMP DP  RH WIND       PRES   REMARKS
PENSACOLA      MOSUNNY   82  74  76 NE6       30.00F                  
PENSACOLA NAS  CLOUDY    81  75  82 SE3       30.01R THUNDER          
MILTON NAS     SUNNY     81  74  79 E3        30.02                   
CRESTVIEW      SUNNY     82  72  71 E8        30.03S                  
DUKE FIELD     MOSUNNY   82  73  73 E6        30.01S                  
VALPARAISO     MOSUNNY   83  73  70 E7        30.01R                  
MARY ESTHER    MOSUNNY   82  72  71 E8        29.99S                  
TRI COUNTY     FAIR      81  73  76 E6        30.04S                  
PANAMA CITY    FAIR      83  73  72 NE7       30.00S                  
TYNDALL AFB    MOSUNNY   81  73  76 E9        30.01S                  
APALACHICOLA   MOSUNNY   83  77  82 E9        30.00S                  

STATION/POSITION SKY/WX   TEMP    WIND        PRES    WAVE   SWELL
                          AIR SEA DIR/SP/G            HT/PER HT/PER
                          (F)     (DEG/KT/KT) (MB)    (FT/S) (FT/S)
30.1N   87.6W              81 86   70/ 14/ 17 1015.5R   3/ 5
29.2N   88.2W              82 86   70/ 12/ 14 1014.5R
28.8N   86.0W              79 85   90/ 14/ 16 1014.3F   3/ 5
PANAMA CITY BEAC           79 86   50/  7/ 10 1016.2F
TOWER C                    82      90/ 16/ 17 1016.1S
28.5N   84.5W              80 86  150/ 23/ 27 1014.6R   3/ 5

**********************************************************************
  Louisiana
900 AM CDT SAT AUG 27 2016

LAZ040-048-061>063-065-066-069-271500-
SOUTHEAST LOUISIANA
  
CITY           SKY/WX    TMP DP  RH WIND       PRES   REMARKS
N.O. AUDUBON     N/A     85  76  76 MISG        N/A                   
N.O. INTL ARPT CLOUDY    85  77  77 NE8       29.98R HX  95           
N.O. LAKEFRONT PTSUNNY   83  75  77 NE14      29.99R                  
N.O. DOWNTOWN* PTSUNNY   83  75  77 NE6       29.99S                  
RESERVE*       FAIR      81  78  91 NE3       29.99S                  
SLIDELL        CLOUDY    82  76  81 NE7       29.99R                  
BATON ROUGE    CLOUDY    80  76  87 NE9       30.00S                  
BOOTHVILLE     PTSUNNY   84  76  76 E6        29.97R                  
BELLE CHASSE   CLOUDY    82  79  90 NE5       29.98R                  
BOGALUSA*      FAIR      80  74  82 NE5       30.03S                  
GALLIANO*      CLOUDY   N/A N/A N/A CALM      29.97S                  
NEW ROADS*     FAIR      79  76  90 CALM      30.01S                  
GONZALES*      FAIR      79  75  88 NE5       29.99R                  
HAMMOND*       SUNNY     81  73  78 NE5       30.00S                  
HOUMA*         PTSUNNY   79  77  94 N5        29.98R                  
PORT FOURCHON* SUNNY     82  77  83 E3        29.97S                  

**********************************************************************
  Mississippi
900 AM CDT SAT AUG 27 2016

MSZ080>082-271500-
COASTAL MISSISSIPPI
  
CITY           SKY/WX    TMP DP  RH WIND       PRES   REMARKS
BILOXI         CLOUDY    81  76  84 NE7       29.98F                  
PASCAGOULA     PTSUNNY   81  75  82 NE7       29.99S                  
GULFPORT       CLOUDY    81  75  82 N7        29.98S                  
About Us | Coastal Marine Forecast | Offshore Marine Forecast
Gulf Coast Tides | Hourly Weather Observations | Weather Radar
Sea Surface Temperatures | Solar/Lunar Data | Hurricane Advisories | Home
     
USA Logo Dr. Bill's Marine Weather
Last date changed: December 9, 2014 4:08 PM
www.gulfmarineweather.com/hourlyweatherobservations.shtml
Contact Us